Voltar ao catálogo

PEGASUS R/B

AtivoVLEO
NORAD 27652·ROCKET BODY·🇺🇸 United States

Lançado Jan 25, 2003 de Cape Canaveral Space Force Station

Loading…

Próximas Passagens (próximas 24 horas)

TLE

AtualizadoSource: Space-Track

Época: Sep 14, 2026, 13:42 UTC

1 27652U 03004B   26257.57121501  .00000995  00000-0  10243-3 0  9999
2 27652  40.0032 341.4300 0018372  25.9570 334.2140 14.94844863282715

Acompanhe PEGASUS R/B em tempo real com AllMySat

Download on the App Store